Location: Poigny-la-Forêt
(48.6876°N, 1.7701°E)
Time: 22:20:22
(UTC+02:00)

ISS - Pass Details

Date: 23 March 2019
Orbit: 408 x 410 km, 51.6° (Epoch: 21 April)

Event Time Altitude Azimuth Distance (km) Brightness Sun altitude
Rises 21:51:57 0° 259° (WSW) 2,332 0.6 -25.8°
Reaches altitude 10° 21:54:03 10° 262° (W) 1,472 -0.5 -26.1°
Enters shadow 21:55:06 19° 266° (W) 1,055 -1.2 -26.3°
